STARLINK-34090, 63976

Orbit data source: Space-Track

STARLINK-34090, 63976 is a payload satellite owned by SpaceX/Seattle (US) in LEO that was launched on Tue, 13 May 2025 UTC via an FALCON 9 launch vehicle from the Air Force Eastern Test Range (AFETR). Payload-class satellites include a variety of spacecraft equipped with specific instruments for various scientific and technological missions. These include communications satellites like Starlink; space stations such as the ISS; scientific satellites like the Hubble; Earth observation satellites from companies like Planet Labs, Umbra, and HawkEye 360; GPS; miniature CubeSats for education and research; and military/defense satellites.

Loading next visibility...
Identifier
63976, 2025-099AA
Orbit
LEO
Country
Flag of USUS
Related business
Manufacturer
SpaceX/Seattle
Mission
Operational Commercial Communications
Bus & Motor
STARLINK V2MO, Unknown motor
Mass
575 kg wet, ~530 kg dry
Launch date (UTC)
2025-05-13 (11 months ago)
Launch vehicle
FALCON 9
Launch site
Air Force Eastern Test Range (AFETR)
Object type
Payload
Rocket body
Debris
Shape & HBR
Box + 2 Pan, 17.7 m
Radar Cross Section
36.964 m², Large (>1 m²)

Expand to show TLE details & history
Last TLE update: 8 hours ago

TLE from 8 hours ago
0 STARLINK-34090
1 63976U 25099AA  26094.24398418  .00055750  00000-0  20208-2 0  9992
2 63976  43.0029  28.5057 0001774 291.3841  68.6821 15.27569922 51190
Epoch: 2026-04-04T05:51Z
TLE epoch observation values (Epoch: 2026-04-04T05:51:20.233Z)
Latitude
-0.00003°
Longitude
108.10482°
Altitude
482.413 km
Speed
7.626 km/s
True Right ascension
01h 54m 01s
True Declination
0° 00' 00"
Sunlit
Object was in daylight at epoch
Visualization orbit readout
Latitude
Unknown
Longitude
Unknown
Altitude
Unknown
Speed
Unknown
Apparent Right ascension
Unknown
Apparent Declination
Unknown
Sunlit
N/A
Visualization observer readout
Local Sidereal Time
19:13:08
Azimuth
Unknown
Elevation
Unknown
Doppler factor
Unknown
Orbital elements
Apogee altitude
486.241 km
Perigee altitude
483.806 km
Semi-major axis
6,863.161 km
Eccentricity
0.00018
Inclination
43.0029°
RAAN
28.5057°
Arg. of periapsis
291.3841°
True anomaly
68.70104°
Mean anomaly
68.6821°
Eccentric anomaly
68.69157°
Mean motion
3.81731 °/min
Orbital period
94.31 mins
BSTAR
0.0020208
Loading maneuver chart data...
Computing Atmospheric mass density...
Loading historical data...
Loading historical data...
Loading historical data...
Loading historical data...
Loading historical data...
Loading historical data...
Loading historical data...

Documentation

Showing up to 5 results
|